Fairfield, IL

8:50 PM CST on December 13, 2019 (GMT -0600)
Fairfield Municipal

Weather History for KFWC - November, 2019

Change the Weather History Date:

Sunday, November 17, 2019

  Actual Average (KEVV) Record (KEVV)
Temperature  
Mean Temperature 35 °F -  
Max Temperature 45 °F 55 °F 80 °F (1958)
Min Temperature 25 °F 35 °F 10 °F (1959)
Degree Days  
Heating Degree Days 30    
Moisture  
Dew Point 32 °F    
Average Humidity 85    
Maximum Humidity 100    
Minimum Humidity 64    
Precipitation  
Precipitation 0.00 in - - ()
Sea Level Pressure  
Sea Level Pressure 30.01 in    
Wind  
Wind Speed 0 mph ()    
Max Wind Speed 5 mph    
Max Gust Speed -    
Visibility 7.1 miles    
Events Rain    
Averages and records for this station are not official NWS values.
T = Trace of Precipitation, MM = Missing Value Source: Averaged Metar Reports

Daily Weather History Graph

Daily Weather History Graph

Search for Another Location

Airport or City:

Astronomy

Nov. 17, 2019 Rise Set
Actual Time 6:37 AM CST 4:39 PM CST
Civil Twilight 6:08 AM CST 5:08 PM CST
Nautical Twilight 5:36 AM CST 5:40 PM CST
Astronomical Twilight 5:05 AM CST 6:11 PM CST
Moon 9:16 PM CST (11/17) 11:21 AM CST (11/17)
Length of Visible Light 10h 59m
Length of Day
10h 02m
Waning Gibbous, 73% of the Moon is Illuminated
Nov 17
Waning Gibbous
Nov 19
Last Quarter
Nov 26
New
Dec 4
First Quarter
Dec 11
Full

Hourly Weather History & Observations

Time (CST) Temp. Windchill Dew Point Humidity Pressure Visibility Wind Dir Wind Speed Gust Speed Precip Events Conditions
12:15 AM 30.2 °F - 29.3 °F 96% 30.15 in 5.0 mi Calm Calm - N/A   Clear
12:35 AM 29.7 °F - 28.8 °F 96% 30.16 in 5.0 mi Calm Calm - N/A   Clear
12:55 AM 29.8 °F - 28.4 °F 94% 30.16 in 5.0 mi Calm Calm - N/A   Clear
1:15 AM 28.6 °F - 28.2 °F 99% 30.16 in 4.0 mi Calm Calm - N/A   Clear
1:35 AM 27.7 °F - 27.7 °F 100% 30.16 in 3.0 mi Calm Calm - N/A   Clear
1:55 AM 27.5 °F - 27.5 °F 100% 30.17 in 3.0 mi Calm Calm - N/A   Clear
2:15 AM 26.2 °F - 26.2 °F 100% 30.15 in 2.5 mi Calm Calm - N/A   Clear
2:35 AM 27.0 °F - 27.0 °F 100% 30.15 in 3.0 mi Calm Calm - N/A   Clear
2:55 AM 27.7 °F - 27.7 °F 100% 30.14 in 3.0 mi Calm Calm - N/A   Clear
3:15 AM 28.2 °F - 28.2 °F 100% 30.13 in 4.0 mi Calm Calm - N/A   Clear
3:35 AM 28.8 °F - 28.2 °F 98% 30.12 in 4.0 mi Calm Calm - N/A   Clear
3:55 AM 28.6 °F - 27.5 °F 96% 30.12 in 4.0 mi Calm Calm - N/A   Clear
4:15 AM 26.2 °F - 26.2 °F 100% 30.11 in 3.0 mi Calm Calm - N/A   Clear
4:35 AM 28.4 °F - 28.4 °F 100% 30.11 in 4.0 mi Calm Calm - N/A   Clear
4:55 AM 26.8 °F - 26.8 °F 100% 30.11 in 3.0 mi Calm Calm - N/A   Clear
5:15 AM 29.3 °F - 29.1 °F 99% 30.10 in 5.0 mi Calm Calm - N/A   Clear
5:35 AM 28.6 °F - 28.2 °F 99% 30.10 in 5.0 mi Calm Calm - N/A   Clear
5:55 AM 28.6 °F - 27.5 °F 96% 30.10 in 4.0 mi Calm Calm - N/A   Clear
6:15 AM 27.3 °F - 27.3 °F 100% 30.12 in 3.0 mi Calm Calm - N/A   Clear
6:35 AM 26.8 °F - 26.8 °F 100% 30.12 in 1.8 mi Calm Calm - N/A   Mist
6:55 AM 25.7 °F - 25.7 °F 100% 30.11 in 2.0 mi Calm Calm - N/A   Clear
7:15 AM 26.6 °F - 26.6 °F 100% 30.10 in 2.0 mi Calm Calm - N/A   Clear
7:35 AM 29.1 °F - 29.1 °F 100% 30.10 in 2.5 mi Calm Calm - N/A   Clear
7:55 AM 31.3 °F - 30.2 °F 96% 30.10 in 3.0 mi Calm Calm - N/A   Clear
8:15 AM 32.0 °F - 30.6 °F 94% 30.10 in 4.0 mi Calm Calm - N/A   Clear
8:55 AM 35.4 °F - 31.8 °F 87% 30.09 in 5.0 mi Calm Calm - N/A   Clear
9:15 AM 36.3 °F - 32.2 °F 85% 30.09 in 5.0 mi Calm Calm - N/A   Clear
9:35 AM 37.9 °F - 32.5 °F 81% 30.09 in 7.0 mi Calm Calm - N/A   Clear
9:55 AM 38.5 °F - 33.1 °F 81% 30.08 in 7.0 mi Calm Calm - N/A   Clear
10:15 AM 40.3 °F 38.2 °F 32.5 °F 74% 30.06 in 10.0 mi SE 3.5 mph - N/A   Clear
10:35 AM 41.2 °F 39.2 °F 32.0 °F 70% 30.05 in 10.0 mi South 3.5 mph - N/A   Clear
10:55 AM 42.1 °F - 32.4 °F 68% 30.05 in 10.0 mi Calm Calm - N/A   Clear
11:15 AM 41.4 °F - 32.7 °F 71% 30.01 in 10.0 mi Calm Calm - N/A   Clear
11:35 AM 42.1 °F 40.2 °F 32.9 °F 70% 30.02 in 7.0 mi SSW 3.5 mph - N/A   Clear
11:55 AM 42.6 °F - 33.8 °F 71% 30.01 in 10.0 mi Calm Calm - N/A   Clear
12:15 PM 43.2 °F 40.5 °F 33.6 °F 69% 30.01 in 10.0 mi SW 4.6 mph - N/A   Clear
12:35 PM 43.5 °F - 33.4 °F 68% 29.99 in 10.0 mi Calm Calm - N/A   Clear
12:55 PM 43.7 °F - 33.3 °F 67% 29.97 in 10.0 mi Calm Calm - N/A   Clear
1:15 PM 44.1 °F - 33.8 °F 67% 29.97 in 10.0 mi Calm Calm - N/A   Clear
1:35 PM 44.2 °F - 33.8 °F 67% 29.96 in 10.0 mi Calm Calm - N/A   Clear
1:55 PM 44.6 °F - 32.9 °F 64% 29.94 in 10.0 mi Calm Calm - N/A   Clear
2:15 PM 45.0 °F - 33.8 °F 65% 29.93 in 10.0 mi Calm Calm - N/A   Clear
2:35 PM 44.8 °F - 34.0 °F 66% 29.93 in 10.0 mi Calm Calm - N/A   Clear
2:55 PM 45.0 °F - 34.2 °F 66% 29.93 in 10.0 mi Calm Calm - N/A   Clear
3:15 PM 44.8 °F - 34.2 °F 66% 29.94 in 10.0 mi Calm Calm - N/A   Clear
3:35 PM 44.6 °F - 35.2 °F 70% 29.93 in 10.0 mi Calm Calm - N/A   Clear
3:55 PM 43.7 °F - 35.6 °F 73% 29.92 in 10.0 mi Calm Calm - N/A   Clear
4:35 PM 42.3 °F - 34.7 °F 75% 29.92 in 10.0 mi Calm Calm - N/A   Clear
4:55 PM 40.3 °F - 34.2 °F 79% 29.92 in 10.0 mi Calm Calm - N/A   Clear
5:15 PM 41.0 °F - 34.0 °F 76% 29.92 in 10.0 mi Calm Calm - N/A   Clear
5:35 PM 39.6 °F - 33.8 °F 80% 29.91 in 10.0 mi Calm Calm - N/A   Clear
5:55 PM 39.4 °F - 34.2 °F 82% 29.91 in 10.0 mi Calm Calm - N/A   Clear
6:15 PM 40.6 °F - 33.3 °F 75% 29.91 in 10.0 mi Calm Calm - N/A   Clear
6:35 PM 41.0 °F - 32.9 °F 73% 29.90 in 10.0 mi Calm Calm - N/A   Scattered Clouds
7:15 PM 40.1 °F - 34.2 °F 79% 29.89 in 10.0 mi Calm Calm - N/A Rain Rain
7:35 PM 40.8 °F - 34.5 °F 78% 29.88 in 10.0 mi Calm Calm - N/A   Light Drizzle
7:55 PM 41.0 °F - 34.0 °F 76% 29.89 in 10.0 mi Calm Calm - N/A Rain Light Rain
8:15 PM 40.1 °F - 35.8 °F 85% 29.90 in 10.0 mi Calm Calm - N/A   Overcast
8:35 PM 41.0 °F - 34.9 °F 79% 29.90 in 10.0 mi Calm Calm - N/A   Overcast
8:55 PM 39.9 °F - 35.6 °F 85% 29.89 in 10.0 mi Calm Calm - N/A   Overcast
9:15 PM 39.4 °F - 36.7 °F 90% 29.88 in 7.0 mi Calm Calm - N/A   Overcast
9:35 PM 39.7 °F - 36.3 °F 88% 29.88 in 7.0 mi Calm Calm - N/A   Overcast
9:55 PM 39.9 °F - 36.7 °F 88% 29.88 in 7.0 mi Calm Calm - N/A   Overcast
10:15 PM 39.4 °F - 35.8 °F 87% 29.88 in 10.0 mi Calm Calm - N/A   Overcast
10:35 PM 39.6 °F - 35.8 °F 86% 29.88 in 10.0 mi Calm Calm - N/A   Overcast
10:55 PM 39.4 °F - 36.0 °F 88% 29.87 in 10.0 mi Calm Calm - N/A   Overcast
11:15 PM 39.4 °F - 36.5 °F 89% 29.86 in 7.0 mi Calm Calm - N/A   Overcast
11:35 PM 39.2 °F - 37.2 °F 93% 29.86 in 7.0 mi Calm Calm - N/A   Overcast
11:55 PM 39.6 °F - 38.1 °F 95% 29.86 in 7.0 mi Calm Calm - N/A   Overcast